Location: Peterborough
(44.3091°N, 78.3197°W)
Time: 17:42:55
(UTC-04:00)

Transit 4A - Pass Details

Date: 22 March 2023
Orbit: 864 x 980 km, 66.8° (Epoch: 04 June)

Event Time Altitude Azimuth Distance (km) Brightness Sun altitude
Rises 17:20:12 0° 325° (NW) 3,562 11.1 21.5°
Reaches altitude 10° 17:22:43 10° 323° (NW) 2,633 10.6 21.1°
Maximum altitude 17:28:46 64° 243° (WSW) 1,043 9.1 20.1°
Drops below altitude 10° 17:34:58 10° 164° (SSE) 2,691 10.4 19.1°
Sets 17:37:34 0° 161° (SSE) 3,645 11.0 18.6°
